EW5655 Weather Reports


time (UTC)temp
C
wind
direction
speed
KPH
gust
KPH
rain 1hr
cm
rain 24hr
cm
rain mn
cm
humidity
%
barometer
mb
20260901125025 21 62 0.0 6.4 0.00 0.00 0.00 55 1019.6
20260901124523 21 286 0.0 1.6 0.00 0.00 0.00 55 1019.5
20260901124023 21 286 0.0 0.0 0.00 0.00 0.00 56 1019.5
20260901123522 21 286 0.0 0.0 0.00 0.00 0.00 56 1019.4
20260901123031 22 286 0.0 0.0 0.00 0.00 0.00 56 1019.5
20260901122522 21 286 0.0 0.0 0.00 0.00 0.00 57 1019.4
20260901122021 21 286 0.0 0.0 0.00 0.00 0.00 56 1019.4
20260901121523 22 286 0.0 0.0 0.00 0.00 0.00 56 1019.3
20260901121020 21 286 0.0 0.0 0.00 0.00 0.00 56 1019.3
20260901120520 21 286 0.0 0.0 0.00 0.00 0.00 56 1019.3
20260901120019 22 286 0.0 0.0 0.00 0.00 0.00 56 1019.4
20260901115518 22 286 0.0 0.0 0.00 0.00 0.00 54 1019.3
20260901115018 22 286 0.0 3.2 0.00 0.00 0.00 54 1019.3
20260901114534 22 286 0.0 3.2 0.00 0.00 0.00 54 1019.3
20260901114016 22 286 0.0 3.2 0.00 0.00 0.00 54 1019.2
20260901113514 22 286 0.0 8.0 0.00 0.00 0.00 54 1019.2
20260901113020 22 290 0.0 8.0 0.00 0.00 0.00 53 1019.2
20260901112513 22 286 1.6 11.3 0.00 0.00 0.00 53 1019.2
20260901112013 22 236 3.2 11.3 0.00 0.00 0.00 53 1019.2
20260901111513 22 281 4.8 8.0 0.00 0.00 0.00 52 1019.2
20260901111011 22 27 0.0 1.6 0.00 0.00 0.00 51 1019.0
20260901110511 23 27 0.0 3.2 0.00 0.00 0.00 50 1019.0
20260901110010 23 27 0.0 8.0 0.00 0.00 0.00 50 1019.0
20260901105510 23 47 0.0 8.0 0.00 0.00 0.00 50 1018.8
20260901105009 23 34 1.6 8.0 0.00 0.00 0.00 50 1018.8
20260901104509 23 34 1.6 8.0 0.00 0.00 0.00 50 1018.8
20260901104009 23 28 0.0 3.2 0.00 0.00 0.00 50 1018.8
20260901103509 23 47 0.0 6.4 0.00 0.00 0.00 50 1018.9
20260901103012 23 59 1.6 6.4 0.00 0.00 0.00 50 1019.0
20260901102508 23 56 0.0 8.0 0.00 0.00 0.00 50 1019.0
20260901102006 23 28 0.0 8.0 0.00 0.00 0.00 49 1019.0
20260901101505 23 49 0.0 6.4 0.00 0.00 0.00 50 1019.1
20260901101006 23 47 0.0 1.6 0.00 0.00 0.00 49 1019.1
20260901100507 23 61 0.0 6.4 0.00 0.00 0.00 50 1019.1
20260901100004 23 53 0.0 6.4 0.00 0.00 0.00 50 1019.1
20260901095504 23 47 0.0 6.4 0.00 0.00 0.00 49 1019.2
20260901095005 23 57 1.6 6.4 0.00 0.00 0.00 49 1019.2
20260901094504 23 43 0.0 6.4 0.00 0.00 0.00 49 1019.2
20260901094003 23 46 0.0 6.4 0.00 0.00 0.00 49 1019.2
20260901093503 23 10 0.0 6.4 0.00 0.00 0.00 50 1019.1
20260901093003 23 26 1.6 6.4 0.00 0.00 0.00 50 1019.1
20260901092502 23 26 1.6 8.0 0.00 0.00 0.00 50 1019.2
20260901092002 23 27 1.6 8.0 0.00 0.00 0.00 50 1019.3
20260901091504 23 9 0.0 6.4 0.00 0.00 0.00 50 1019.4
20260901091001 23 3 0.0 9.7 0.00 0.00 0.00 50 1019.5
20260901090501 23 59 1.6 9.7 0.00 0.00 0.00 50 1019.4
20260901090005 23 34 1.6 8.0 0.00 0.00 0.00 50 1019.4
20260901085602 23 36 1.6 11.3 0.00 0.00 0.00 50 1019.4
20260901085059 23 41 4.8 11.3 0.00 0.00 0.00 50 1019.4
20260901084603 23 40 3.2 9.7 0.00 0.00 0.00 50 1019.4
20260901084100 23 62 0.0 3.2 0.00 0.00 0.00 51 1019.4
20260901083559 23 28 0.0 8.0 0.00 0.00 0.00 51 1019.3
20260901083059 23 19 3.2 8.0 0.00 0.00 0.00 51 1019.5
20260901082558 24 41 1.6 4.8 0.00 0.00 0.00 51 1019.5
20260901082057 24 9 0.0 6.4 0.00 0.00 0.00 50 1019.5
20260901081557 24 17 0.0 9.7 0.00 0.00 0.00 51 1019.6
20260901081058 24 42 1.6 9.7 0.00 0.00 0.00 51 1019.5
20260901080557 24 24 1.6 9.7 0.00 0.00 0.00 51 1019.5
20260901080058 24 52 1.6 9.7 0.00 0.00 0.00 50 1019.4
20260901075557 24 7 3.2 9.7 0.00 0.00 0.00 50 1019.3
20260901075057 24 32 0.0 12.9 0.00 0.00 0.00 51 1019.4
20260901074600 24 47 6.4 12.9 0.00 0.00 0.00 52 1019.4
20260901074055 24 9 4.8 11.3 0.00 0.00 0.00 52 1019.3
20260901073554 24 337 4.8 11.3 0.00 0.00 0.00 51 1019.3
20260901073054 24 58 0.0 9.7 0.00 0.00 0.00 50 1019.2
20260901072553 25 9 0.0 16.1 0.00 0.00 0.00 48 1019.2
20260901072053 25 17 8.0 16.1 0.00 0.00 0.00 44 1019.1
20260901071552 25 13 8.0 16.1 0.00 0.00 0.00 43 1019.3
20260901071050 25 14 4.8 12.9 0.00 0.00 0.00 43 1019.6
20260901070550 25 2 1.6 12.9 0.00 0.00 0.00 44 1019.6
20260901070050 25 47 3.2 12.9 0.00 0.00 0.00 44 1019.4
20260901065549 25 15 6.4 12.9 0.00 0.00 0.00 44 1019.5
20260901065049 25 4 4.8 12.9 0.00 0.00 0.00 44 1019.7
20260901064549 25 340 4.8 14.5 0.00 0.00 0.00 44 1019.7
20260901064047 25 7 4.8 17.7 0.00 0.00 0.00 45 1019.6
20260901063546 25 317 4.8 17.7 0.00 0.00 0.00 46 1019.7
20260901063105 25 310 8.0 16.1 0.00 0.00 0.00 46 1019.8
20260901062544 25 302 8.0 22.5 0.00 0.00 0.00 46 1019.9
20260901062044 25 307 12.9 22.5 0.00 0.00 0.00 46 1019.9
20260901061547 25 334 8.0 16.1 0.00 0.00 0.00 46 1019.8
20260901061041 25 330 4.8 16.1 0.00 0.00 0.00 46 1019.7
20260901060541 25 331 8.0 17.7 0.00 0.00 0.00 46 1019.7
20260901060040 25 346 9.7 24.1 0.00 0.00 0.00 45 1019.6
20260901055539 25 26 12.9 24.1 0.00 0.00 0.00 45 1019.6
20260901055039 25 286 9.7 22.5 0.00 0.00 0.00 46 1019.4
20260901054539 25 333 9.7 17.7 0.00 0.00 0.00 46 1019.5
20260901054039 25 321 9.7 17.7 0.00 0.00 0.00 48 1019.5
20260901053538 25 315 8.0 14.5 0.00 0.00 0.00 48 1019.6
20260901053050 25 340 8.0 20.9 0.00 0.00 0.00 48 1019.6
20260901052540 25 299 9.7 20.9 0.00 0.00 0.00 48 1019.8
20260901052037 25 330 11.3 19.3 0.00 0.00 0.00 49 1019.8
20260901051538 25 294 6.4 20.9 0.00 0.00 0.00 50 1019.9
20260901051039 25 344 9.7 25.7 0.00 0.00 0.00 50 1020.0
20260901050538 25 271 11.3 25.7 0.00 0.00 0.00 51 1020.1
20260901050038 25 342 8.0 22.5 0.00 0.00 0.00 51 1020.1
20260901045538 25 312 9.7 22.5 0.00 0.00 0.00 51 1020.1
20260901045037 25 311 9.7 22.5 0.00 0.00 0.00 51 1020.2
20260901044540 25 344 8.0 25.7 0.00 0.00 0.00 52 1020.2
20260901044036 24 323 11.3 29.0 0.00 0.00 0.00 52 1020.1
20260901043535 24 290 9.7 29.0 0.00 0.00 0.00 53 1020.1
20260901043034 25 239 14.5 25.7 0.00 0.00 0.00 52 1020.0
20260901042539 25 232 11.3 25.7 0.00 0.00 0.00 51 1020.0
20260901042033 25 242 8.0 30.6 0.00 0.00 0.00 50 1019.8
20260901041536 25 227 12.9 30.6 0.00 0.00 0.00 50 1019.8
20260901041032 25 286 9.7 22.5 0.00 0.00 0.00 49 1019.7
20260901040532 25 286 11.3 22.5 0.00 0.00 0.00 49 1019.6
20260901040033 25 305 9.7 25.7 0.00 0.00 0.00 48 1019.6
20260901035531 25 232 12.9 25.7 0.00 0.00 0.00 48 1019.6
20260901035033 26 218 9.7 22.5 0.00 0.00 0.00 47 1019.5
20260901034537 26 253 8.0 22.5 0.00 0.00 0.00 47 1019.5
20260901034029 26 227 9.7 22.5 0.00 0.00 0.00 47 1019.3
20260901033527 26 267 8.0 19.3 0.00 0.00 0.00 46 1019.2
20260901033029 26 226 6.4 24.1 0.00 0.00 0.00 46 1019.1
20260901032525 26 251 16.1 24.1 0.00 0.00 0.00 45 1018.7
20260901032024 26 232 12.9 32.2 0.00 0.00 0.00 45 1018.6
20260901031529 27 213 14.5 32.2 0.00 0.00 0.00 44 1018.4
20260901031021 27 217 14.5 30.6 0.00 0.00 0.00 42 1018.3
20260901030521 27 227 14.5 29.0 0.00 0.00 0.00 41 1018.1
20260901030020 27 159 11.3 22.5 0.00 0.00 0.00 40 1018.0
20260901025521 27 195 11.3 19.3 0.00 0.00 0.00 37 1017.9
20260901025021 27 211 8.0 22.5 0.00 0.00 0.00 38 1017.6
20260901024522 27 138 9.7 22.5 0.00 0.00 0.00 38 1017.6
20260901024023 27 184 8.0 24.1 0.00 0.00 0.00 37 1017.4
20260901023524 28 169 12.9 24.1 0.00 0.00 0.00 35 1017.1
20260901023021 28 148 4.8 11.3 0.00 0.00 0.00 34 1016.9
20260901022521 28 157 1.6 16.1 0.00 0.00 0.00 34 1016.6
20260901022119 28 178 8.0 16.1 0.00 0.00 0.00 34 1016.5
20260901021522 28 196 3.2 12.9 0.00 0.00 0.00 35 1016.1
20260901021019 28 204 0.0 16.1 0.00 0.00 0.00 35 1015.9
20260901020519 28 144 9.7 17.7 0.00 0.00 0.00 34 1016.0
20260901020022 28 216 9.7 17.7 0.00 0.00 0.00 35 1015.7
20260901015523 28 334 4.8 22.5 0.00 0.00 0.00 35 1015.2
20260901015018 28 323 8.0 22.5 0.00 0.00 0.00 35 1015.2
20260901014518 29 292 11.3 32.2 0.00 0.00 0.00 34 1015.1
20260901014019 30 269 14.5 29.0 0.00 0.00 0.00 33 1015.1
20260901013519 30 304 6.4 29.0 0.00 0.00 0.00 29 1015.0
20260901013017 31 256 14.5 29.0 0.00 0.00 0.00 27 1014.9
20260901012517 31 258 8.0 14.5 0.00 0.00 0.00 25 1014.6
20260901012016 31 286 0.0 6.4 0.00 0.00 0.00 27 1014.5
20260901011517 31 233 0.0 1.6 0.00 0.00 0.00 28 1014.3
20260901011017 31 233 0.0 3.2 0.00 0.00 0.00 27 1014.2
20260901010519 31 233 0.0 3.2 0.00 0.00 0.00 26 1014.1
20260901010016 31 233 0.0 11.3 0.00 0.00 0.00 26 1014.1
20260901005518 32 224 1.6 11.3 0.00 0.00 0.00 25 1014.0
20260901005015 32 242 1.6 12.9 0.00 0.00 0.00 26 1014.1
20260901004516 32 232 4.8 16.1 0.00 0.00 0.00 25 1014.2
20260901004015 32 242 3.2 12.9 0.00 0.00 0.00 25 1014.2
20260901003515 32 247 4.8 17.7 0.00 0.00 0.00 25 1014.3
20260901003025 33 290 9.7 17.7 0.00 0.00 0.00 24 1014.4
20260901002515 33 232 8.0 16.1 0.00 0.00 0.00 22 1014.4
20260901002015 33 171 8.0 14.5 0.00 0.00 0.00 21 1014.4
20260901001519 33 196 6.4 12.9 0.00 0.00 0.00 20 1014.3
20260901001014 34 215 8.0 12.9 0.00 0.00 0.00 21 1014.3
20260901000514 34 188 6.4 12.9 0.00 0.00 0.00 21 1014.3
20260901000014 34 201 6.4 16.1 0.00 0.00 0.00 21 1014.3
20260831235515 34 200 8.0 17.7 0.00 0.00 0.00 21 1014.3
20260831235017 35 176 9.7 17.7 0.00 0.00 0.00 21 1014.3
20260831234514 35 170 6.4 19.3 0.00 0.00 0.00 20 1014.2
20260831234013 35 188 11.3 19.3 0.00 0.00 0.00 20 1014.2
20260831233514 36 248 4.8 17.7 0.00 0.00 0.00 20 1014.1
20260831233013 35 200 9.7 17.7 0.00 0.00 0.00 20 1014.1
20260831232513 35 192 8.0 17.7 0.00 0.00 0.00 20 1014.1
20260831232013 35 186 9.7 17.7 0.00 0.00 0.00 20 1014.1
20260831231513 36 194 11.3 17.7 0.00 0.00 0.00 19 1014.1
20260831231013 36 170 9.7 14.5 0.00 0.00 0.00 19 1014.0
20260831230513 36 171 6.4 14.5 0.00 0.00 0.00 19 1014.0
20260831230014 36 263 6.4 14.5 0.00 0.00 0.00 19 1014.1
20260831225511 36 207 6.4 16.1 0.00 0.00 0.00 19 1014.2
20260831225011 36 212 9.7 16.1 0.00 0.00 0.00 19 1014.2
20260831224510 36 181 9.7 16.1 0.00 0.00 0.00 19 1014.2
20260831224010 36 211 9.7 16.1 0.00 0.00 0.00 20 1014.3
20260831223509 36 215 9.7 16.1 0.00 0.00 0.00 18 1014.4
20260831223009 36 200 9.7 20.9 0.00 0.00 0.00 15 1014.5
20260831222509 36 170 8.0 20.9 0.00 0.00 0.00 16 1014.6
20260831222008 37 232 11.3 17.7 0.00 0.00 0.00 17 1014.6
20260831221520 37 142 3.2 17.7 0.00 0.00 0.00 17 1014.6
20260831221010 37 173 11.3 22.5 0.00 0.00 0.00 15 1014.6
20260831220509 37 218 11.3 22.5 0.00 0.00 0.00 15 1014.6
20260831220008 37 211 9.7 20.9 0.00 0.00 0.00 15 1014.7
20260831215506 37 161 9.7 20.9 0.00 0.00 0.00 16 1014.8
20260831215006 37 123 8.0 17.7 0.00 0.00 0.00 16 1014.9
20260831214504 37 172 9.7 17.7 0.00 0.00 0.00 19 1015.0
20260831214004 37 165 11.3 24.1 0.00 0.00 0.00 18 1015.0
20260831213502 37 198 12.9 24.1 0.00 0.00 0.00 18 1015.2
20260831213003 37 246 8.0 17.7 0.00 0.00 0.00 18 1015.2
20260831212502 37 219 8.0 19.3 0.00 0.00 0.00 18 1015.3
20260831212102 37 211 8.0 19.3 0.00 0.00 0.00 19 1015.4
20260831211601 37 175 4.8 17.7 0.00 0.00 0.00 19 1015.4
20260831211058 37 216 9.7 19.3 0.00 0.00 0.00 19 1015.6
20260831210559 36 174 11.3 19.3 0.00 0.00 0.00 20 1015.6
20260831210100 36 147 6.4 17.7 0.00 0.00 0.00 21 1015.6
20260831205601 36 200 8.0 14.5 0.00 0.00 0.00 21 1015.8
20260831205058 35 267 1.6 11.3 0.00 0.00 0.00 22 1015.8
20260831204558 36 292 3.2 11.3 0.00 0.00 0.00 22 1015.9
20260831204057 36 169 0.0 14.5 0.00 0.00 0.00 21 1016.1
20260831203557 37 111 6.4 14.5 0.00 0.00 0.00 22 1016.2
20260831203104 36 202 6.4 16.1 0.00 0.00 0.00 21 1016.3
20260831202556 36 195 8.0 16.1 0.00 0.00 0.00 21 1016.4
20260831202056 36 226 8.0 16.1 0.00 0.00 0.00 21 1016.5
20260831201557 36 281 8.0 17.7 0.00 0.00 0.00 21 1016.6
20260831201056 36 238 8.0 17.7 0.00 0.00 0.00 21 1016.6
20260831200557 36 225 8.0 12.9 0.00 0.00 0.00 21 1016.7
20260831200059 36 29 1.6 11.3 0.00 0.00 0.00 21 1016.7
20260831195555 36 312 6.4 11.3 0.00 0.00 0.00 21 1016.7
20260831195057 36 51 0.0 12.9 0.00 0.00 0.00 22 1016.8
20260831194624 36 171 4.8 12.9 0.00 0.00 0.00 21 1016.9
20260831194056 36 238 6.4 11.3 0.00 0.00 0.00 21 1017.0
20260831193557 36 178 1.6 8.0 0.00 0.00 0.00 22 1017.0
20260831193057 36 42 0.0 8.0 0.00 0.00 0.00 23 1017.1
20260831192553 35 32 3.2 9.7 0.00 0.00 0.00 23 1017.1
20260831192053 35 8 3.2 9.7 0.00 0.00 0.00 21 1017.1
20260831191553 36 7 3.2 11.3 0.00 0.00 0.00 22 1017.2
20260831191054 35 153 3.2 11.3 0.00 0.00 0.00 22 1017.3
20260831190553 35 207 4.8 8.0 0.00 0.00 0.00 22 1017.3
20260831190114 35 188 3.2 9.7 0.00 0.00 0.00 22 1017.3
20260831185552 35 166 3.2 11.3 0.00 0.00 0.00 23 1017.4
20260831185050 35 161 4.8 11.3 0.00 0.00 0.00 22 1017.5
20260831184559 35 252 3.2 12.9 0.00 0.00 0.00 23 1017.4
20260831184049 35 213 6.4 12.9 0.00 0.00 0.00 24 1017.5
20260831183548 35 306 4.8 9.7 0.00 0.00 0.00 22 1017.6
20260831183046 35 109 0.0 6.4 0.00 0.00 0.00 23 1017.6
20260831182547 34 66 0.0 6.4 0.00 0.00 0.00 23 1017.7
20260831182045 33 27 0.0 8.0 0.00 0.00 0.00 24 1017.7
20260831181548 34 352 1.6 11.3 0.00 0.00 0.00 24 1017.7
20260831181042 34 323 3.2 11.3 0.00 0.00 0.00 24 1017.8
20260831180542 33 238 1.6 6.4 0.00 0.00 0.00 24 1017.9
20260831180042 33 329 1.6 9.7 0.00 0.00 0.00 25 1017.9
20260831175540 33 227 6.4 11.3 0.00 0.00 0.00 25 1017.9
20260831175040 33 159 1.6 11.3 0.00 0.00 0.00 25 1017.9
20260831174540 33 140 4.8 11.3 0.00 0.00 0.00 25 1017.9
20260831174042 33 143 4.8 11.3 0.00 0.00 0.00 25 1018.0
20260831173537 33 271 3.2 8.0 0.00 0.00 0.00 25 1018.0
20260831173037 33 350 1.6 8.0 0.00 0.00 0.00 26 1018.1
20260831172533 33 329 1.6 8.0 0.00 0.00 0.00 26 1018.1
20260831172033 32 357 1.6 8.0 0.00 0.00 0.00 26 1018.1
20260831171531 32 3 0.0 9.7 0.00 0.00 0.00 26 1018.1
20260831171030 32 321 4.8 9.7 0.00 0.00 0.00 26 1018.1
20260831170531 32 348 0.0 3.2 0.00 0.00 0.00 27 1018.2
20260831170029 32 348 0.0 9.7 0.00 0.00 0.00 27 1018.2
20260831165527 32 281 4.8 9.7 0.00 0.00 0.00 27 1018.3
20260831165027 32 25 1.6 8.0 0.00 0.00 0.00 28 1018.3
20260831164526 31 202 3.2 9.7 0.00 0.00 0.00 28 1018.3
20260831164025 31 173 3.2 9.7 0.00 0.00 0.00 28 1018.3
20260831163525 31 248 6.4 9.7 0.00 0.00 0.00 29 1018.3
20260831163024 31 209 3.2 9.7 0.00 0.00 0.00 29 1018.3
20260831162523 31 208 3.2 8.0 0.00 0.00 0.00 30 1018.4
20260831162022 30 250 3.2 8.0 0.00 0.00 0.00 30 1018.4
20260831161520 30 281 1.6 9.7 0.00 0.00 0.00 30 1018.4
20260831161019 30 297 4.8 9.7 0.00 0.00 0.00 31 1018.3
20260831160519 30 327 1.6 9.7 0.00 0.00 0.00 31 1018.3
20260831160020 30 286 4.8 8.0 0.00 0.00 0.00 32 1018.2
20260831155519 29 330 1.6 11.3 0.00 0.00 0.00 33 1018.2
20260831155016 29 238 3.2 11.3 0.00 0.00 0.00 33 1018.3
20260831154523 29 319 3.2 11.3 0.00 0.00 0.00 33 1018.2
20260831154014 28 294 3.2 9.7 0.00 0.00 0.00 34 1018.2
20260831153512 28 271 1.6 8.0 0.00 0.00 0.00 34 1018.2
20260831153016 28 295 1.6 8.0 0.00 0.00 0.00 33 1018.1
20260831152512 28 286 3.2 8.0 0.00 0.00 0.00 34 1018.2
20260831152012 28 294 3.2 8.0 0.00 0.00 0.00 34 1018.1
20260831151511 28 286 1.6 8.0 0.00 0.00 0.00 35 1018.1
20260831151011 27 310 0.0 8.0 0.00 0.00 0.00 36 1018.1
20260831150511 27 348 3.2 8.0 0.00 0.00 0.00 35 1018.0
20260831150010 27 354 3.2 8.0 0.00 0.00 0.00 36 1018.0
20260831145508 27 355 3.2 11.3 0.00 0.00 0.00 37 1018.0
20260831145012 27 333 3.2 11.3 0.00 0.00 0.00 37 1018.1
20260831144508 27 1 3.2 9.7 0.00 0.00 0.00 37 1018.0
20260831144009 27 316 1.6 9.7 0.00 0.00 0.00 37 1018.0
20260831143507 26 1 1.6 8.0 0.00 0.00 0.00 37 1017.9
20260831143008 26 346 1.6 8.0 0.00 0.00 0.00 38 1017.9
20260831142504 26 359 0.0 8.0 0.00 0.00 0.00 39 1017.8
20260831142003 26 46 0.0 6.4 0.00 0.00 0.00 39 1017.9
20260831141501 25 10 1.6 6.4 0.00 0.00 0.00 40 1017.9
20260831141100 25 45 1.6 6.4 0.00 0.00 0.00 40 1017.9
20260831140558 25 22 1.6 6.4 0.00 0.00 0.00 41 1017.8
20260831140058 25 36 0.0 6.4 0.00 0.00 0.00 42 1017.8
20260831135556 24 50 1.6 4.8 0.00 0.00 0.00 42 1017.8
20260831135056 24 23 0.0 4.8 0.00 0.00 0.00 42 1017.7
20260831134606 23 49 0.0 3.2 0.00 0.00 0.00 43 1017.7
20260831134054 23 49 0.0 3.2 0.00 0.00 0.00 44 1017.6
20260831133553 23 49 0.0 6.4 0.00 0.00 0.00 44 1017.5
20260831133104 23 51 0.0 6.4 0.00 0.00 0.00 44 1017.4
20260831132552 22 71 0.0 8.0 0.00 0.00 0.00 44 1017.4
20260831132055 22 63 1.6 9.7 0.00 0.00 0.00 44 1017.4
20260831131557 22 69 1.6 4.8 0.00 0.00 0.00 44 1017.2
20260831131048 22 69 0.0 8.0 0.00 0.00 0.00 45 1017.1
20260831130548 22 69 1.6 8.0 0.00 0.00 0.00 44 1017.0
20260831130047 23 70 1.6 6.4 0.00 0.00 0.00 44 1017.0
20260831125547 23 71 0.0 6.4 0.00 0.00 0.00 43 1016.9